Time,TemperatureF,DewpointF,PressureIn,WindDirection,WindDirectionDegrees,WindSpeedMPH,WindSpeedGustMPH,Humidity,HourlyPrecipIn,Conditions,Clouds,dailyrainin,SoftwareType,DateUTC
2013-05-07 00:02:00,34.0,10.0,29.56,WSW,239,0.0,1.0,36,0.00,,,0.00,,2013-05-07 08:02:00,
2013-05-07 00:11:00,34.0,10.0,29.56,WSW,239,0.0,1.0,36,0.00,,,0.00,,2013-05-07 08:11:00,
2013-05-07 00:21:00,34.0,11.0,29.56,WSW,239,0.0,1.0,38,0.00,,,0.00,,2013-05-07 08:21:00,
2013-05-07 00:31:00,34.0,10.0,29.56,WSW,239,0.0,0.0,36,0.00,,,0.00,,2013-05-07 08:31:00,
2013-05-07 00:41:00,34.0,10.0,29.56,WSW,239,0.0,0.0,36,0.00,,,0.00,,2013-05-07 08:41:00,
2013-05-07 00:52:00,33.0,10.0,29.56,WSW,239,0.0,0.0,38,0.00,,,0.00,,2013-05-07 08:52:00,
2013-05-07 01:01:00,33.0,11.0,29.57,WSW,239,0.0,0.0,39,0.00,,,0.00,,2013-05-07 09:01:00,
2013-05-07 01:11:00,33.0,11.0,29.57,WSW,239,0.0,0.0,39,0.00,,,0.00,,2013-05-07 09:11:00,
2013-05-07 01:22:00,33.0,10.0,29.57,WSW,239,0.0,0.0,37,0.00,,,0.00,,2013-05-07 09:22:00,
2013-05-07 01:33:00,33.0,10.0,29.57,WSW,239,0.0,0.0,37,0.00,,,0.00,,2013-05-07 09:33:00,
2013-05-07 01:42:00,33.0,10.0,29.57,WSW,239,0.0,0.0,37,0.00,,,0.00,,2013-05-07 09:42:00,
2013-05-07 01:52:00,32.0,11.0,29.57,WSW,239,0.0,0.0,41,0.00,,,0.00,,2013-05-07 09:52:00,
2013-05-07 02:02:00,32.0,11.0,29.58,WSW,239,0.0,0.0,41,0.00,,,0.00,,2013-05-07 10:02:00,
2013-05-07 02:12:00,32.0,11.0,29.58,WSW,239,0.0,0.0,41,0.00,,,0.00,,2013-05-07 10:12:00,
2013-05-07 02:22:00,31.0,11.0,29.58,WSW,239,0.0,0.0,43,0.00,,,0.00,,2013-05-07 10:22:00,
2013-05-07 02:32:00,31.0,11.0,29.58,WSW,239,0.0,0.0,43,0.00,,,0.00,,2013-05-07 10:32:00,
2013-05-07 02:42:00,30.0,12.0,29.59,WSW,239,0.0,0.0,46,0.00,,,0.00,,2013-05-07 10:42:00,
2013-05-07 02:52:00,30.0,12.0,29.59,WSW,239,0.0,0.0,46,0.00,,,0.00,,2013-05-07 10:52:00,
2013-05-07 03:02:00,30.0,12.0,29.59,SE,143,0.0,0.0,47,0.00,,,0.00,,2013-05-07 11:02:00,
2013-05-07 03:11:00,30.0,12.0,29.59,SE,143,0.0,0.0,47,0.00,,,0.00,,2013-05-07 11:11:00,
2013-05-07 03:21:00,29.0,12.0,29.59,SE,140,0.0,0.0,48,0.00,,,0.00,,2013-05-07 11:21:00,
2013-05-07 03:31:00,29.0,12.0,29.59,SE,140,0.0,0.0,49,0.00,,,0.00,,2013-05-07 11:31:00,
2013-05-07 03:42:00,29.0,12.0,29.59,SE,140,0.0,0.0,49,0.00,,,0.00,,2013-05-07 11:42:00,
2013-05-07 03:52:00,29.0,13.0,29.59,SE,140,0.0,0.0,51,0.00,,,0.00,,2013-05-07 11:52:00,
2013-05-07 04:01:00,28.0,13.0,29.60,SE,140,0.0,0.0,52,0.00,,,0.00,,2013-05-07 12:01:00,
2013-05-07 04:11:00,28.0,13.0,29.60,SE,140,0.0,0.0,52,0.00,,,0.00,,2013-05-07 12:11:00,
2013-05-07 04:21:00,28.0,12.0,29.60,SE,140,0.0,0.0,51,0.00,,,0.00,,2013-05-07 12:21:00,
2013-05-07 04:32:00,28.0,13.0,29.60,SE,140,0.0,0.0,53,0.00,,,0.00,,2013-05-07 12:32:00,
2013-05-07 04:41:00,28.0,13.0,29.60,SE,140,0.0,0.0,53,0.00,,,0.00,,2013-05-07 12:41:00,
2013-05-07 04:52:00,28.0,14.0,29.60,SE,140,0.0,0.0,54,0.00,,,0.00,,2013-05-07 12:52:00,
2013-05-07 05:01:00,27.0,12.0,29.60,SE,140,0.0,0.0,53,0.00,,,0.00,,2013-05-07 13:01:00,
2013-05-07 05:11:00,27.0,12.0,29.60,SE,140,0.0,0.0,53,0.00,,,0.00,,2013-05-07 13:11:00,
2013-05-07 05:21:00,27.0,12.0,29.60,SE,140,0.0,0.0,53,0.00,,,0.00,,2013-05-07 13:21:00,
2013-05-07 05:32:00,28.0,13.0,29.60,SE,140,0.0,0.0,53,0.00,,,0.00,,2013-05-07 13:32:00,
2013-05-07 05:42:00,28.0,13.0,29.60,SE,140,0.0,0.0,53,0.00,,,0.00,,2013-05-07 13:42:00,
2013-05-07 05:52:00,27.0,13.0,29.60,SE,140,0.0,0.0,54,0.00,,,0.00,,2013-05-07 13:52:00,
2013-05-07 06:01:00,27.0,13.0,29.61,SE,140,0.0,0.0,54,0.00,,,0.00,,2013-05-07 14:01:00,
2013-05-07 06:11:00,27.0,13.0,29.61,SE,140,0.0,0.0,54,0.00,,,0.00,,2013-05-07 14:11:00,
2013-05-07 06:21:00,27.0,13.0,29.61,SE,140,0.0,0.0,55,0.00,,,0.00,,2013-05-07 14:21:00,
2013-05-07 06:31:00,27.0,13.0,29.61,SE,140,0.0,0.0,56,0.00,,,0.00,,2013-05-07 14:31:00,
2013-05-07 06:42:00,27.0,13.0,29.61,SE,140,0.0,0.0,56,0.00,,,0.00,,2013-05-07 14:42:00,
2013-05-07 06:52:00,27.0,14.0,29.61,SE,140,0.0,0.0,57,0.00,,,0.00,,2013-05-07 14:52:00,
2013-05-07 07:01:00,27.0,14.0,29.61,SE,140,0.0,0.0,57,0.00,,,0.00,,2013-05-07 15:01:00,
2013-05-07 07:11:00,27.0,14.0,29.61,SE,140,0.0,0.0,57,0.00,,,0.00,,2013-05-07 15:11:00,
2013-05-07 07:21:00,27.0,14.0,29.61,SE,140,0.0,0.0,57,0.00,,,0.00,,2013-05-07 15:21:00,
2013-05-07 07:32:00,28.0,14.0,29.61,SE,140,0.0,0.0,56,0.00,,,0.00,,2013-05-07 15:32:00,
2013-05-07 07:42:00,28.0,14.0,29.61,SE,140,0.0,0.0,56,0.00,,,0.00,,2013-05-07 15:42:00,
2013-05-07 07:53:00,28.0,14.0,29.61,SE,140,0.0,0.0,56,0.00,,,0.00,,2013-05-07 15:53:00,
2013-05-07 08:02:00,29.0,15.0,29.61,SE,140,0.0,0.0,55,0.00,,,0.00,,2013-05-07 16:02:00,
2013-05-07 08:12:00,30.0,15.0,29.61,SE,140,0.0,0.0,54,0.00,,,0.00,,2013-05-07 16:12:00,
2013-05-07 08:22:00,30.0,15.0,29.61,SE,140,0.0,0.0,54,0.00,,,0.00,,2013-05-07 16:22:00,
2013-05-07 08:32:00,30.0,15.0,29.62,SE,140,0.0,0.0,54,0.00,,,0.00,,2013-05-07 16:32:00,
2013-05-07 08:41:00,30.0,15.0,29.62,SE,140,0.0,0.0,54,0.00,,,0.00,,2013-05-07 16:41:00,
2013-05-07 08:52:00,30.0,15.0,29.62,SE,140,0.0,0.0,54,0.00,,,0.00,,2013-05-07 16:52:00,
2013-05-07 09:01:00,32.0,16.0,29.62,West,266,0.0,0.0,52,0.00,,,0.00,,2013-05-07 17:01:00,
2013-05-07 09:11:00,33.0,16.0,29.61,SE,141,0.0,0.0,50,0.00,,,0.00,,2013-05-07 17:11:00,
2013-05-07 09:21:00,33.0,16.0,29.61,SE,141,0.0,0.0,50,0.00,,,0.00,,2013-05-07 17:21:00,
2013-05-07 09:31:00,35.0,17.0,29.61,SE,142,0.0,0.0,48,0.00,,,0.00,,2013-05-07 17:31:00,
2013-05-07 09:41:00,36.0,18.0,29.61,South,184,0.0,0.0,47,0.00,,,0.00,,2013-05-07 17:41:00,
2013-05-07 09:52:00,36.0,18.0,29.61,South,184,0.0,0.0,47,0.00,,,0.00,,2013-05-07 17:52:00,
2013-05-07 10:01:00,37.0,18.0,29.61,WSW,239,0.0,0.0,45,0.00,,,0.00,,2013-05-07 18:01:00,
2013-05-07 10:11:00,37.0,18.0,29.61,South,182,0.0,0.0,45,0.00,,,0.00,,2013-05-07 18:11:00,
2013-05-07 10:21:00,37.0,18.0,29.61,South,182,0.0,0.0,45,0.00,,,0.00,,2013-05-07 18:21:00,
2013-05-07 10:31:00,37.0,18.0,29.61,South,182,0.0,0.0,45,0.00,,,0.00,,2013-05-07 18:31:00,
2013-05-07 10:41:00,37.0,18.0,29.61,South,182,0.0,0.0,45,0.00,,,0.00,,2013-05-07 18:41:00,
2013-05-07 10:52:00,37.0,18.0,29.61,SW,227,0.0,0.0,46,0.00,,,0.00,,2013-05-07 18:52:00,
2013-05-07 11:01:00,38.0,18.0,29.61,SSE,158,0.0,0.0,43,0.00,,,0.00,,2013-05-07 19:01:00,
2013-05-07 11:11:00,38.0,18.0,29.61,SSE,158,0.0,0.0,43,0.00,,,0.00,,2013-05-07 19:11:00,
2013-05-07 11:21:00,38.0,18.0,29.61,SSE,158,0.0,0.0,43,0.00,,,0.00,,2013-05-07 19:21:00,
2013-05-07 11:31:00,39.0,16.0,29.61,SW,226,0.0,0.0,39,0.00,,,0.00,,2013-05-07 19:31:00,
2013-05-07 11:41:00,39.0,16.0,29.61,SW,226,0.0,0.0,39,0.00,,,0.00,,2013-05-07 19:41:00,
2013-05-07 11:52:00,40.0,15.0,29.61,SSE,163,0.0,0.0,36,0.00,,,0.00,,2013-05-07 19:52:00,
2013-05-07 12:01:00,41.0,16.0,29.61,SW,227,0.0,0.0,36,0.00,,,0.00,,2013-05-07 20:01:00,
2013-05-07 12:11:00,41.0,16.0,29.61,SW,227,0.0,0.0,36,0.00,,,0.00,,2013-05-07 20:11:00,
2013-05-07 12:21:00,41.0,15.0,29.61,South,175,0.0,1.0,35,0.00,,,0.00,,2013-05-07 20:21:00,
2013-05-07 12:32:00,41.0,15.0,29.61,SW,230,0.0,1.0,34,0.00,,,0.00,,2013-05-07 20:32:00,
2013-05-07 12:41:00,41.0,15.0,29.61,SW,230,0.0,1.0,34,0.00,,,0.00,,2013-05-07 20:41:00,
2013-05-07 12:51:00,41.0,14.0,29.60,WSW,249,0.0,1.0,33,0.00,,,0.00,,2013-05-07 20:51:00,
2013-05-07 13:01:00,41.0,14.0,29.60,SSW,193,0.0,1.0,33,0.00,,,0.00,,2013-05-07 21:01:00,
2013-05-07 13:11:00,41.0,14.0,29.60,SSW,193,0.0,1.0,33,0.00,,,0.00,,2013-05-07 21:11:00,
2013-05-07 13:21:00,42.0,15.0,29.60,South,178,0.0,1.0,33,0.00,,,0.00,,2013-05-07 21:21:00,
2013-05-07 13:32:00,43.0,15.0,29.60,SW,220,0.0,1.0,32,0.00,,,0.00,,2013-05-07 21:32:00,
2013-05-07 13:42:00,43.0,15.0,29.60,SW,220,0.0,1.0,32,0.00,,,0.00,,2013-05-07 21:42:00,
2013-05-07 13:53:00,44.0,16.0,29.60,SSE,167,0.0,1.0,32,0.00,,,0.00,,2013-05-07 21:53:00,
2013-05-07 14:02:00,45.0,16.0,29.60,WSW,237,0.0,1.0,31,0.00,,,0.00,,2013-05-07 22:02:00,
2013-05-07 14:12:00,45.0,16.0,29.60,WSW,237,0.0,1.0,31,0.00,,,0.00,,2013-05-07 22:12:00,
2013-05-07 14:22:00,45.0,15.0,29.60,SSW,198,0.0,1.0,30,0.00,,,0.00,,2013-05-07 22:22:00,
2013-05-07 14:32:00,45.0,16.0,29.59,South,188,0.0,1.0,31,0.00,,,0.00,,2013-05-07 22:32:00,
2013-05-07 14:42:00,45.0,15.0,29.59,South,176,0.0,1.0,29,0.00,,,0.00,,2013-05-07 22:42:00,
2013-05-07 14:52:00,45.0,15.0,29.59,South,176,0.0,1.0,29,0.00,,,0.00,,2013-05-07 22:52:00,
2013-05-07 15:01:00,45.0,15.0,29.59,SSE,168,0.0,1.0,30,0.00,,,0.00,,2013-05-07 23:01:00,
2013-05-07 15:11:00,46.0,14.0,29.59,SW,233,0.0,1.0,27,0.00,,,0.00,,2013-05-07 23:11:00,
2013-05-07 15:21:00,46.0,14.0,29.59,SW,233,0.0,1.0,27,0.00,,,0.00,,2013-05-07 23:21:00,
2013-05-07 15:31:00,46.0,13.0,29.59,WSW,237,0.0,1.0,26,0.00,,,0.00,,2013-05-07 23:31:00,
2013-05-07 15:41:00,46.0,14.0,29.59,SSW,206,0.0,1.0,27,0.00,,,0.00,,2013-05-07 23:41:00,
2013-05-07 15:52:00,46.0,14.0,29.59,SSW,206,0.0,1.0,27,0.00,,,0.00,,2013-05-07 23:52:00,
2013-05-07 16:01:00,46.0,14.0,29.59,SSW,201,0.0,1.0,27,0.00,,,0.00,,2013-05-08 00:01:00,
2013-05-07 16:11:00,46.0,14.0,29.59,South,179,0.0,1.0,27,0.00,,,0.00,,2013-05-08 00:11:00,
2013-05-07 16:21:00,46.0,14.0,29.59,South,179,0.0,1.0,27,0.00,,,0.00,,2013-05-08 00:21:00,
2013-05-07 16:32:00,46.0,14.0,29.59,South,179,0.0,1.0,27,0.00,,,0.00,,2013-05-08 00:32:00,
2013-05-07 16:41:00,45.0,13.0,29.58,SSW,204,0.0,1.0,27,0.00,,,0.00,,2013-05-08 00:41:00,
2013-05-07 16:51:00,45.0,13.0,29.58,SSW,204,0.0,1.0,27,0.00,,,0.00,,2013-05-08 00:51:00,
2013-05-07 17:01:00,45.0,13.0,29.58,SW,214,0.0,1.0,27,0.00,,,0.00,,2013-05-08 01:01:00,
2013-05-07 17:11:00,45.0,15.0,29.58,SSW,193,0.0,1.0,29,0.00,,,0.00,,2013-05-08 01:11:00,
2013-05-07 17:21:00,45.0,15.0,29.58,SSW,193,0.0,1.0,29,0.00,,,0.00,,2013-05-08 01:21:00,
2013-05-07 17:31:00,45.0,13.0,29.58,SSE,165,0.0,1.0,27,0.00,,,0.00,,2013-05-08 01:31:00,
2013-05-07 17:42:00,44.0,12.0,29.57,SSW,207,0.0,1.0,27,0.00,,,0.00,,2013-05-08 01:42:00,
2013-05-07 17:52:00,44.0,12.0,29.57,SSW,207,0.0,1.0,27,0.00,,,0.00,,2013-05-08 01:52:00,
2013-05-07 18:01:00,44.0,12.0,29.57,SSW,207,0.0,1.0,27,0.00,,,0.00,,2013-05-08 02:01:00,
2013-05-07 18:11:00,44.0,12.0,29.57,West,267,0.0,1.0,27,0.00,,,0.00,,2013-05-08 02:11:00,
2013-05-07 18:21:00,44.0,12.0,29.57,West,267,0.0,1.0,27,0.00,,,0.00,,2013-05-08 02:21:00,
2013-05-07 18:31:00,44.0,12.0,29.57,South,189,0.0,1.0,27,0.00,,,0.00,,2013-05-08 02:31:00,
2013-05-07 18:42:00,44.0,12.0,29.57,South,189,0.0,1.0,27,0.00,,,0.00,,2013-05-08 02:42:00,
2013-05-07 18:52:00,44.0,12.0,29.57,South,189,0.0,1.0,27,0.00,,,0.00,,2013-05-08 02:52:00,
2013-05-07 19:01:00,44.0,12.0,29.57,South,190,0.0,1.0,27,0.00,,,0.00,,2013-05-08 03:01:00,
2013-05-07 19:11:00,44.0,12.0,29.57,South,190,0.0,1.0,27,0.00,,,0.00,,2013-05-08 03:11:00,
2013-05-07 19:21:00,44.0,14.0,29.57,SSW,208,0.0,1.0,29,0.00,,,0.00,,2013-05-08 03:21:00,
2013-05-07 19:32:00,44.0,13.0,29.57,SW,235,0.0,1.0,28,0.00,,,0.00,,2013-05-08 03:32:00,
2013-05-07 19:43:00,44.0,13.0,29.57,SW,235,0.0,1.0,28,0.00,,,0.00,,2013-05-08 03:43:00,
2013-05-07 19:52:00,44.0,12.0,29.57,SSW,207,0.0,1.0,27,0.00,,,0.00,,2013-05-08 03:52:00,
2013-05-07 20:02:00,43.0,12.0,29.57,SW,230,0.0,1.0,28,0.00,,,0.00,,2013-05-08 04:02:00,
2013-05-07 20:12:00,43.0,12.0,29.57,SW,230,0.0,1.0,28,0.00,,,0.00,,2013-05-08 04:12:00,
2013-05-07 20:22:00,43.0,13.0,29.57,SSW,205,0.0,1.0,29,0.00,,,0.00,,2013-05-08 04:22:00,
2013-05-07 20:32:00,42.0,13.0,29.57,SW,229,0.0,1.0,30,0.00,,,0.00,,2013-05-08 04:32:00,
2013-05-07 20:42:00,42.0,13.0,29.57,SW,229,0.0,1.0,30,0.00,,,0.00,,2013-05-08 04:42:00,
2013-05-07 20:52:00,42.0,13.0,29.57,South,189,0.0,1.0,30,0.00,,,0.00,,2013-05-08 04:52:00,
2013-05-07 21:02:00,42.0,14.0,29.57,West,279,0.0,1.0,32,0.00,,,0.00,,2013-05-08 05:02:00,
2013-05-07 21:12:00,42.0,14.0,29.57,West,279,0.0,1.0,32,0.00,,,0.00,,2013-05-08 05:12:00,
2013-05-07 21:22:00,41.0,14.0,29.57,SW,233,0.0,1.0,33,0.00,,,0.00,,2013-05-08 05:22:00,
2013-05-07 21:32:00,41.0,14.0,29.57,SW,233,0.0,1.0,33,0.00,,,0.00,,2013-05-08 05:32:00,
2013-05-07 21:42:00,41.0,14.0,29.57,SW,233,0.0,1.0,33,0.00,,,0.00,,2013-05-08 05:42:00,
2013-05-07 21:52:00,41.0,14.0,29.57,SW,215,0.0,1.0,33,0.00,,,0.00,,2013-05-08 05:52:00,
2013-05-07 22:01:00,40.0,13.0,29.57,SW,215,0.0,1.0,33,0.00,,,0.00,,2013-05-08 06:01:00,
2013-05-07 22:11:00,40.0,13.0,29.57,SW,215,0.0,1.0,33,0.00,,,0.00,,2013-05-08 06:11:00,
2013-05-07 22:21:00,40.0,15.0,29.58,SW,215,0.0,1.0,35,0.00,,,0.00,,2013-05-08 06:21:00,
2013-05-07 22:31:00,39.0,12.0,29.58,SW,215,0.0,1.0,33,0.00,,,0.00,,2013-05-08 06:31:00,
2013-05-07 22:41:00,39.0,12.0,29.58,SW,215,0.0,1.0,33,0.00,,,0.00,,2013-05-08 06:41:00,
2013-05-07 22:52:00,39.0,12.0,29.58,SW,215,0.0,1.0,33,0.00,,,0.00,,2013-05-08 06:52:00,
2013-05-07 23:01:00,38.0,12.0,29.58,SW,215,0.0,1.0,34,0.00,,,0.00,,2013-05-08 07:01:00,
2013-05-07 23:11:00,38.0,12.0,29.58,SW,215,0.0,1.0,34,0.00,,,0.00,,2013-05-08 07:11:00,
2013-05-07 23:21:00,37.0,12.0,29.59,SW,215,0.0,1.0,35,0.00,,,0.00,,2013-05-08 07:21:00,
2013-05-07 23:31:00,37.0,13.0,29.59,SW,215,0.0,1.0,36,0.00,,,0.00,,2013-05-08 07:31:00,
2013-05-07 23:41:00,37.0,13.0,29.59,SW,215,0.0,1.0,36,0.00,,,0.00,,2013-05-08 07:41:00,
2013-05-07 23:52:00,36.0,12.0,29.59,SW,215,0.0,1.0,36,0.00,,,0.00,,2013-05-08 07:52:00,